Location: Hackbridge
(51.3833°N, 0.1500°W)
Time: 07:57:37
(UTC+00:00)

CSL-04 Rocket - Pass Details

Date: 13 October 2019
Orbit: 805 x 861 km, 99.0° (Epoch: 13 November)

Event Time Altitude Azimuth Distance (km) Brightness Sun altitude
Rises 17:44:02 0° 148° (SSE) 3,427 6.6 -5.7°
Reaches altitude 10° 17:46:26 10° 144° (SE) 2,493 5.9 -6.1°
Maximum altitude 17:51:51 57° 68° (ENE) 1,007 3.8 -6.9°
Drops below altitude 10° 17:57:14 10° 351° (N) 2,487 6.2 -7.8°
Sets 17:59:38 0° 347° (NNW) 3,419 7.0 -8.1°
